Total_Precipitation_Accumulation
0.79 0.89 0.99 1.03 1.10 1.18 1.28 1.33 1.37 1.33 1.30 1.24 1.04 0.98 0.94 0.92 0.97 0.90 0.93 0.75 0.51 0.42 0.41 0.42 0.43 0.46 0.57 0.73 0.89 1.03 1.23 1.37 1.45 1.52 1.53 1.57 1.60 1.66
0.88 0.99 1.03 1.03 1.05 1.14 1.27 1.44 1.53 1.51 1.37 1.14 1.03 1.07 1.09 0.99 0.93 0.80 0.75 0.72 0.55 0.42 0.38 0.39 0.39 0.41 0.45 0.58 0.72 0.83 0.97 1.08 1.19 1.30 1.36 1.39 1.42 1.51
0.79 0.91 0.99 1.02 1.06 1.11 1.20 1.29 1.44 1.56 1.43 1.22 1.16 1.22 1.28 1.25 1.08 0.90 0.75 0.69 0.58 0.47 0.38 0.36 0.36 0.41 0.48 0.54 0.65 0.74 0.79 0.85 0.96 1.09 1.20 1.29 1.33 1.37
0.81 0.84 0.83 0.88 0.99 1.01 1.07 1.12 1.23 1.42 1.39 1.29 1.33 1.36 1.39 1.33 1.25 1.07 0.88 0.77 0.71 0.55 0.42 0.36 0.36 0.37 0.41 0.42 0.49 0.63 0.74 0.79 0.81 0.83 0.89 1.01 1.14 1.23
0.73 0.73 0.71 0.73 0.78 0.86 0.96 0.95 0.98 1.10 1.24 1.32 1.43 1.50 1.57 1.46 1.28 1.14 1.02 0.93 0.74 0.64 0.53 0.43 0.39 0.38 0.38 0.38 0.42 0.50 0.62 0.75 0.82 0.86 0.87 0.92 0.98 1.06
0.62 0.59 0.61 0.64 0.66 0.70 0.80 0.85 0.87 0.96 1.10 1.20 1.38 1.58 1.60 1.64 1.52 1.30 1.20 1.14 0.90 0.67 0.62 0.55 0.49 0.43 0.39 0.36 0.37 0.43 0.53 0.68 0.83 0.90 0.95 1.03 1.10 1.10
0.56 0.52 0.50 0.49 0.51 0.57 0.60 0.66 0.74 0.84 0.89 0.98 1.14 1.39 1.53 1.62 1.58 1.40 1.26 1.27 1.15 0.86 0.72 0.67 0.63 0.56 0.50 0.44 0.36 0.35 0.43 0.57 0.77 0.91 0.98 1.09 1.21 1.27
0.48 0.48 0.44 0.39 0.42 0.43 0.41 0.46 0.54 0.60 0.71 0.85 0.93 1.13 1.33 1.42 1.53 1.62 1.50 1.34 1.30 1.16 1.04 0.98 0.85 0.79 0.65 0.51 0.42 0.33 0.33 0.43 0.55 0.70 0.83 0.97 1.09 1.25
0.42 0.44 0.35 0.30 0.37 0.40 0.37 0.32 0.35 0.38 0.46 0.64 0.77 0.88 1.10 1.29 1.45 1.63 1.62 1.55 1.48 1.42 1.32 1.30 1.11 0.94 0.80 0.67 0.58 0.45 0.36 0.33 0.37 0.45 0.55 0.69 0.81 0.93
0.36 0.42 0.42 0.38 0.38 0.40 0.40 0.35 0.31 0.31 0.33 0.40 0.50 0.67 0.92 1.28 1.46 1.53 1.66 1.70 1.69 1.64 1.54 1.53 1.40 1.20 1.05 0.91 0.81 0.61 0.49 0.40 0.37 0.36 0.40 0.45 0.57 0.69
0.35 0.39 0.44 0.43 0.41 0.32 0.35 0.36 0.36 0.35 0.31 0.34 0.41 0.53 0.71 0.98 1.36 1.49 1.53 1.47 1.45 1.31 1.16 1.19 1.27 1.27 1.25 1.15 1.01 0.86 0.70 0.56 0.49 0.47 0.46 0.46 0.51 0.61
0.50 0.50 0.44 0.40 0.38 0.31 0.34 0.40 0.37 0.35 0.36 0.37 0.38 0.41 0.47 0.64 0.93 1.17 1.21 1.16 1.07 1.09 0.90 0.81 0.86 0.93 1.07 1.05 0.95 0.87 0.81 0.80 0.72 0.60 0.53 0.51 0.60 0.59
0.55 0.57 0.52 0.42 0.32 0.29 0.32 0.39 0.39 0.39 0.49 0.51 0.51 0.51 0.53 0.57 0.66 0.84 1.01 1.05 0.95 0.83 0.79 0.74 0.74 0.75 0.75 0.79 0.80 0.77 0.78 0.82 0.81 0.78 0.72 0.70 0.72 0.70
0.61 0.63 0.64 0.48 0.36 0.34 0.34 0.34 0.36 0.37 0.47 0.56 0.54 0.51 0.51 0.52 0.55 0.68 0.83 0.92 0.99 0.90 0.82 0.79 0.77 0.71 0.67 0.62 0.64 0.63 0.65 0.75 0.87 0.97 0.92 0.90 0.89 0.96
0.66 0.66 0.62 0.52 0.42 0.39 0.41 0.41 0.37 0.39 0.46 0.53 0.53 0.46 0.43 0.49 0.59 0.72 0.84 0.92 0.96 0.96 0.88 0.79 0.76 0.75 0.66 0.61 0.56 0.55 0.58 0.65 0.73 0.89 1.05 1.08 1.03 1.02
0.70 0.69 0.62 0.59 0.52 0.49 0.51 0.46 0.42 0.47 0.52 0.52 0.55 0.57 0.56 0.59 0.63 0.69 0.77 0.83 0.88 0.89 0.84 0.79 0.79 0.77 0.72 0.62 0.60 0.58 0.55 0.59 0.59 0.66 0.88 1.12 1.28 1.34
0.89 0.90 0.84 0.78 0.68 0.62 0.63 0.63 0.61 0.64 0.60 0.60 0.65 0.71 0.70 0.63 0.61 0.64 0.74 0.77 0.73 0.73 0.76 0.78 0.79 0.82 0.79 0.64 0.58 0.59 0.58 0.55 0.49 0.47 0.56 0.79 1.06 1.26
0.92 0.93 0.91 0.86 0.79 0.77 0.78 0.77 0.73 0.72 0.67 0.67 0.69 0.74 0.76 0.70 0.64 0.64 0.70 0.73 0.70 0.69 0.68 0.70 0.75 0.83 0.88 0.83 0.58 0.47 0.48 0.47 0.45 0.46 0.50 0.54 0.69 0.80
0.90 0.90 0.88 0.86 0.81 0.79 0.81 0.80 0.76 0.74 0.74 0.74 0.73 0.74 0.79 0.79 0.74 0.68 0.65 0.69 0.71 0.73 0.71 0.68 0.66 0.65 0.63 0.62 0.58 0.42 0.38 0.37 0.40 0.47 0.52 0.47 0.48 0.54
0.86 0.88 0.87 0.85 0.83 0.80 0.77 0.79 0.80 0.81 0.77 0.73 0.74 0.75 0.78 0.77 0.79 0.73 0.66 0.63 0.67 0.73 0.76 0.69 0.58 0.49 0.44 0.42 0.42 0.43 0.40 0.41 0.40 0.42 0.46 0.45 0.44 0.46
0.90 0.88 0.84 0.79 0.78 0.78 0.76 0.74 0.74 0.73 0.73 0.75 0.74 0.72 0.75 0.72 0.69 0.68 0.68 0.67 0.68 0.73 0.68 0.57 0.50 0.54 0.60 0.63 0.57 0.50 0.45 0.45 0.53 0.51 0.49 0.50 0.50 0.51
0.88 0.82 0.80 0.74 0.72 0.73 0.73 0.72 0.71 0.71 0.72 0.77 0.76 0.73 0.72 0.66 0.61 0.61 0.64 0.63 0.59 0.62 0.68 0.68 0.70 0.67 0.68 0.64 0.57 0.51 0.51 0.53 0.61 0.74 0.72 0.57 0.44 0.41
0.80 0.75 0.74 0.68 0.65 0.63 0.62 0.63 0.63 0.66 0.66 0.69 0.71 0.72 0.72 0.66 0.59 0.58 0.61 0.63 0.63 0.65 0.76 0.82 0.78 0.69 0.61 0.60 0.61 0.60 0.59 0.61 0.63 0.71 0.74 0.63 0.44 0.33